Qianfan 05-10

operational
NORAD ID: 63168 Int'l Des: 2025-046 Owner: YUANX Country: CN Constellation: qianfan
LEOCIRCULARPOLAR

Über Qianfan 05-10

Beschreibung wird geladen...

Live-Position

3D-Globus wird geladen...

Nächste Überflüge

Höhenverlauf

Altitude vs Time

uPlot chart will show altitude changes over time

Zweizeiliger Elementsatz

1 63168U 25046K 25353.70733817 .00000121 00000-0 16794-3 0 9999
2 63168 88.9768 319.1945 0014627 104.7700 255.5073 13.50977630 48418
Epoch: 19. Dez. 2025 • Age: 6 hours

Aktueller Status

Höhe 1070.5 km
Geschwindigkeit 7.33 km/s
Subsatellitenpunkt 73.80°N, 64.4°E
Startdatum 11. März 2025
Alter 0.7 years
Typ internet

Technische Details

Klassifizierung Payload
Masse 267.00 kg
Trockenmasse 267.00 kg
Gesamtmasse 267.00 kg
Länge 0.30 m
Durchmesser 3.00 m
Spannweite 10.00 m
Form Box+pan
Hersteller GESIH
Bus-Typ Qianfan
Phasenstatus In Orbit
Besitzer/Staat YUANX/CN

Große Konstellationen

Loading constellations...